Time,TemperatureF,DewpointF,PressureIn,WindDirection,WindDirectionDegrees,WindSpeedMPH,WindSpeedGustMPH,Humidity,HourlyPrecipIn,Conditions,Clouds,dailyrainin,SoftwareType,DateUTC
2013-04-28 00:02:00,75.1,67.0,30.13,ESE,112,1.0,6.0,76,0.00,,,0.00,Wunderground v.1.13,2013-04-28 04:02:00,
2013-04-28 00:08:00,74.9,67.2,30.13,ENE,69,2.0,11.0,77,0.00,,,0.00,Wunderground v.1.13,2013-04-28 04:08:00,
2013-04-28 00:10:00,74.9,67.2,30.13,East,90,2.0,11.0,77,0.00,,,0.00,Wunderground v.1.13,2013-04-28 04:10:00,
2013-04-28 00:16:00,74.7,67.0,30.13,SE,124,2.0,7.0,77,0.00,,,0.00,Wunderground v.1.13,2013-04-28 04:16:00,
2013-04-28 00:20:00,74.5,67.2,30.12,East,94,2.0,11.0,78,0.00,,,0.00,Wunderground v.1.13,2013-04-28 04:20:00,
2013-04-28 00:26:00,74.4,67.1,30.12,ESE,110,2.0,11.0,78,0.00,,,0.00,Wunderground v.1.13,2013-04-28 04:26:00,
2013-04-28 00:32:00,74.2,66.9,30.12,ESE,103,1.0,11.0,78,0.00,,,0.00,Wunderground v.1.13,2013-04-28 04:32:00,
2013-04-28 00:34:00,74.2,67.3,30.12,SE,129,1.0,11.0,79,0.00,,,0.00,Wunderground v.1.13,2013-04-28 04:34:00,
2013-04-28 00:40:00,74.0,67.1,30.12,East,92,1.0,11.0,79,0.00,,,0.00,Wunderground v.1.13,2013-04-28 04:40:00,
2013-04-28 00:46:00,73.9,67.0,30.12,ESE,115,1.0,11.0,79,0.00,,,0.00,Wunderground v.1.13,2013-04-28 04:46:00,
2013-04-28 00:52:00,73.8,66.9,30.12,SE,125,1.0,11.0,79,0.00,,,0.00,Wunderground v.1.13,2013-04-28 04:52:00,
2013-04-28 00:58:00,73.7,66.8,30.12,ESE,105,0.0,11.0,79,0.00,,,0.00,Wunderground v.1.13,2013-04-28 04:58:00,
2013-04-28 01:04:00,73.5,66.6,30.12,ESE,123,1.0,11.0,79,0.00,,,0.00,Wunderground v.1.13,2013-04-28 05:04:00,
2013-04-28 01:10:00,73.4,66.5,30.12,ESE,108,1.0,5.0,79,0.00,,,0.00,Wunderground v.1.13,2013-04-28 05:10:00,
2013-04-28 01:16:00,73.3,66.4,30.12,East,94,1.0,9.0,79,0.00,,,0.00,Wunderground v.1.13,2013-04-28 05:16:00,
2013-04-28 01:22:00,73.2,66.7,30.12,SSE,153,1.0,9.0,80,0.00,,,0.00,Wunderground v.1.13,2013-04-28 05:22:00,
2013-04-28 01:28:00,73.1,66.6,30.11,ESE,116,1.0,9.0,80,0.00,,,0.00,Wunderground v.1.13,2013-04-28 05:28:00,
2013-04-28 01:34:00,73.0,66.5,30.11,SE,128,1.0,9.0,80,0.00,,,0.00,Wunderground v.1.13,2013-04-28 05:34:00,
2013-04-28 01:40:00,72.9,66.4,30.11,ESE,114,1.0,9.0,80,0.00,,,0.00,Wunderground v.1.13,2013-04-28 05:40:00,
2013-04-28 01:46:00,72.8,66.3,30.10,ESE,114,0.0,9.0,80,0.00,,,0.00,Wunderground v.1.13,2013-04-28 05:46:00,
2013-04-28 01:52:00,72.6,66.1,30.11,SE,134,1.0,9.0,80,0.00,,,0.00,Wunderground v.1.13,2013-04-28 05:52:00,
2013-04-28 01:58:00,72.6,66.1,30.10,ESE,116,1.0,9.0,80,0.00,,,0.00,Wunderground v.1.13,2013-04-28 05:58:00,
2013-04-28 02:04:00,72.5,66.0,30.10,ESE,109,0.0,9.0,80,0.00,,,0.00,Wunderground v.1.13,2013-04-28 06:04:00,
2013-04-28 02:10:00,72.4,65.9,30.10,ESE,117,1.0,1.0,80,0.00,,,0.00,Wunderground v.1.13,2013-04-28 06:10:00,
2013-04-28 02:16:00,72.4,65.9,30.09,ENE,69,0.0,7.0,80,0.00,,,0.00,Wunderground v.1.13,2013-04-28 06:16:00,
2013-04-28 02:22:00,72.3,66.1,30.09,East,86,0.0,7.0,81,0.00,,,0.00,Wunderground v.1.13,2013-04-28 06:22:00,
2013-04-28 02:28:00,72.3,66.1,30.09,ESE,120,0.0,7.0,81,0.00,,,0.00,Wunderground v.1.13,2013-04-28 06:28:00,
2013-04-28 02:34:00,72.2,66.0,30.09,ESE,111,0.0,7.0,81,0.00,,,0.00,Wunderground v.1.13,2013-04-28 06:34:00,
2013-04-28 02:40:00,72.1,65.9,30.09,ESE,123,0.0,7.0,81,0.00,,,0.00,Wunderground v.1.13,2013-04-28 06:40:00,
2013-04-28 02:46:00,72.1,65.9,30.09,East,99,0.0,7.0,81,0.00,,,0.00,Wunderground v.1.13,2013-04-28 06:46:00,
2013-04-28 02:52:00,72.1,65.9,30.09,SE,130,0.0,7.0,81,0.00,,,0.00,Wunderground v.1.13,2013-04-28 06:52:00,
2013-04-28 02:58:00,72.0,65.8,30.09,SE,132,0.0,7.0,81,0.00,,,0.00,Wunderground v.1.13,2013-04-28 06:58:00,
2013-04-28 03:04:00,71.9,65.8,30.08,East,90,0.0,7.0,81,0.00,,,0.00,Wunderground v.1.13,2013-04-28 07:04:00,
2013-04-28 03:10:00,71.8,65.7,30.09,SE,126,1.0,3.0,81,0.00,,,0.00,Wunderground v.1.13,2013-04-28 07:10:00,
2013-04-28 03:16:00,71.7,65.6,30.08,ESE,119,1.0,6.0,81,0.00,,,0.00,Wunderground v.1.13,2013-04-28 07:16:00,
2013-04-28 03:22:00,71.7,65.6,30.08,ESE,107,1.0,6.0,81,0.00,,,0.00,Wunderground v.1.13,2013-04-28 07:22:00,
2013-04-28 03:28:00,71.7,65.6,30.08,SE,136,1.0,6.0,81,0.00,,,0.00,Wunderground v.1.13,2013-04-28 07:28:00,
2013-04-28 03:34:00,71.6,65.5,30.07,SE,137,1.0,6.0,81,0.00,,,0.00,Wunderground v.1.13,2013-04-28 07:34:00,
2013-04-28 03:40:00,71.5,65.4,30.07,ESE,107,0.0,6.0,81,0.00,,,0.00,Wunderground v.1.13,2013-04-28 07:40:00,
2013-04-28 03:46:00,71.5,65.4,30.06,ESE,123,1.0,9.0,81,0.00,,,0.00,Wunderground v.1.13,2013-04-28 07:46:00,
2013-04-28 03:52:00,71.5,65.4,30.06,SSE,150,1.0,6.0,81,0.00,,,0.00,Wunderground v.1.13,2013-04-28 07:52:00,
2013-04-28 03:58:00,71.4,65.3,30.06,SE,132,0.0,6.0,81,0.00,,,0.00,Wunderground v.1.13,2013-04-28 07:58:00,
2013-04-28 04:04:00,71.4,65.3,30.06,ESE,115,0.0,6.0,81,0.00,,,0.00,Wunderground v.1.13,2013-04-28 08:04:00,
2013-04-28 04:10:00,71.4,65.3,30.07,ESE,107,0.0,0.0,81,0.00,,,0.00,Wunderground v.1.13,2013-04-28 08:10:00,
2013-04-28 04:16:00,71.4,65.6,30.06,SE,126,1.0,11.0,82,0.00,,,0.00,Wunderground v.1.13,2013-04-28 08:16:00,
2013-04-28 04:22:00,71.4,65.6,30.06,SE,133,1.0,11.0,82,0.00,,,0.00,Wunderground v.1.13,2013-04-28 08:22:00,
2013-04-28 04:28:00,71.3,65.5,30.06,SE,136,0.0,11.0,82,0.00,,,0.00,Wunderground v.1.13,2013-04-28 08:28:00,
2013-04-28 04:34:00,71.2,65.4,30.06,ESE,115,0.0,11.0,82,0.00,,,0.00,Wunderground v.1.13,2013-04-28 08:34:00,
2013-04-28 04:40:00,71.2,65.4,30.07,SE,132,1.0,11.0,82,0.00,,,0.00,Wunderground v.1.13,2013-04-28 08:40:00,
2013-04-28 04:46:00,71.2,65.4,30.06,SE,139,0.0,11.0,82,0.00,,,0.00,Wunderground v.1.13,2013-04-28 08:46:00,
2013-04-28 04:52:00,71.1,65.3,30.07,SE,146,1.0,11.0,82,0.00,,,0.00,Wunderground v.1.13,2013-04-28 08:52:00,
2013-04-28 04:58:00,71.0,65.2,30.06,ESE,121,1.0,11.0,82,0.00,,,0.00,Wunderground v.1.13,2013-04-28 08:58:00,
2013-04-28 05:04:00,71.0,65.2,30.06,ESE,123,0.0,11.0,82,0.00,,,0.00,Wunderground v.1.13,2013-04-28 09:04:00,
2013-04-28 05:10:00,70.9,65.5,30.07,SE,132,0.0,0.0,83,0.00,,,0.00,Wunderground v.1.13,2013-04-28 09:10:00,
2013-04-28 05:16:00,70.9,65.5,30.06,SE,128,0.0,6.0,83,0.00,,,0.00,Wunderground v.1.13,2013-04-28 09:16:00,
2013-04-28 05:22:00,70.8,65.4,30.06,SE,130,0.0,6.0,83,0.00,,,0.00,Wunderground v.1.13,2013-04-28 09:22:00,
2013-04-28 05:28:00,70.8,65.4,30.06,SE,130,0.0,6.0,83,0.00,,,0.00,Wunderground v.1.13,2013-04-28 09:28:00,
2013-04-28 05:34:00,70.7,65.3,30.06,SSE,159,0.0,6.0,83,0.00,,,0.00,Wunderground v.1.13,2013-04-28 09:34:00,
2013-04-28 05:40:00,70.7,65.3,30.06,SSE,156,1.0,6.0,83,0.00,,,0.00,Wunderground v.1.13,2013-04-28 09:40:00,
2013-04-28 05:46:00,70.8,65.4,30.05,SE,136,1.0,6.0,83,0.00,,,0.00,Wunderground v.1.13,2013-04-28 09:46:00,
2013-04-28 05:52:00,70.8,65.4,30.05,SE,130,0.0,6.0,83,0.00,,,0.00,Wunderground v.1.13,2013-04-28 09:52:00,
2013-04-28 05:58:00,70.8,65.4,30.06,SE,126,0.0,6.0,83,0.00,,,0.00,Wunderground v.1.13,2013-04-28 09:58:00,
2013-04-28 06:04:00,70.7,64.9,30.05,SSE,147,0.0,6.0,82,0.00,,,0.00,Wunderground v.1.13,2013-04-28 10:04:00,
2013-04-28 06:10:00,70.8,65.0,30.05,SSE,161,0.0,0.0,82,0.00,,,0.00,Wunderground v.1.13,2013-04-28 10:10:00,
2013-04-28 06:16:00,70.8,65.0,30.06,SSE,156,0.0,7.0,82,0.00,,,0.00,Wunderground v.1.13,2013-04-28 10:16:00,
2013-04-28 06:22:00,70.7,64.9,30.06,SE,136,0.0,7.0,82,0.00,,,0.00,Wunderground v.1.13,2013-04-28 10:22:00,
2013-04-28 06:28:00,70.7,64.9,30.07,SE,141,0.0,7.0,82,0.00,,,0.00,Wunderground v.1.13,2013-04-28 10:28:00,
2013-04-28 06:34:00,70.6,65.2,30.07,SSE,156,0.0,7.0,83,0.00,,,0.00,Wunderground v.1.13,2013-04-28 10:34:00,
2013-04-28 06:40:00,70.6,65.2,30.07,SSE,164,0.0,7.0,83,0.00,,,0.00,Wunderground v.1.13,2013-04-28 10:40:00,
2013-04-28 06:46:00,70.6,65.2,30.07,SE,137,0.0,7.0,83,0.00,,,0.00,Wunderground v.1.13,2013-04-28 10:46:00,
2013-04-28 06:52:00,70.5,65.1,30.07,SE,125,0.0,7.0,83,0.00,,,0.00,Wunderground v.1.13,2013-04-28 10:52:00,
2013-04-28 06:58:00,70.5,65.1,30.07,SSE,163,0.0,7.0,83,0.00,,,0.00,Wunderground v.1.13,2013-04-28 10:58:00,
2013-04-28 07:04:00,70.4,65.0,30.07,East,101,0.0,7.0,83,0.00,,,0.00,Wunderground v.1.13,2013-04-28 11:04:00,
2013-04-28 07:10:00,70.4,65.0,30.08,ESE,111,0.0,0.0,83,0.00,,,0.00,Wunderground v.1.13,2013-04-28 11:10:00,
2013-04-28 07:16:00,70.4,65.0,30.08,ESE,115,0.0,5.0,83,0.00,,,0.00,Wunderground v.1.13,2013-04-28 11:16:00,
2013-04-28 07:22:00,70.4,65.0,30.07,ESE,115,0.0,5.0,83,0.00,,,0.00,Wunderground v.1.13,2013-04-28 11:22:00,
2013-04-28 07:28:00,70.5,65.1,30.08,ESE,115,0.0,5.0,83,0.00,,,0.00,Wunderground v.1.13,2013-04-28 11:28:00,
2013-04-28 07:34:00,70.5,65.1,30.08,ESE,115,0.0,5.0,83,0.00,,,0.00,Wunderground v.1.13,2013-04-28 11:34:00,
2013-04-28 07:40:00,70.5,65.1,30.09,ESE,115,0.0,5.0,83,0.00,,,0.00,Wunderground v.1.13,2013-04-28 11:40:00,
2013-04-28 07:46:00,70.6,65.5,30.09,ESE,115,0.0,5.0,84,0.00,,,0.00,Wunderground v.1.13,2013-04-28 11:46:00,
2013-04-28 07:52:00,70.9,65.8,30.09,ESE,109,0.0,5.0,84,0.00,,,0.00,Wunderground v.1.13,2013-04-28 11:52:00,
2013-04-28 07:58:00,71.2,65.8,30.09,ESE,109,0.0,5.0,83,0.00,,,0.00,Wunderground v.1.13,2013-04-28 11:58:00,
2013-04-28 08:04:00,71.6,65.8,30.09,East,98,0.0,5.0,82,0.00,,,0.00,Wunderground v.1.13,2013-04-28 12:04:00,
2013-04-28 08:10:00,71.8,65.7,30.09,ESE,119,0.0,0.0,81,0.00,,,0.00,Wunderground v.1.13,2013-04-28 12:10:00,
2013-04-28 08:16:00,72.0,65.8,30.09,ESE,122,0.0,0.0,81,0.00,,,0.00,Wunderground v.1.13,2013-04-28 12:16:00,
2013-04-28 08:22:00,72.2,66.0,30.10,ESE,122,0.0,0.0,81,0.00,,,0.00,Wunderground v.1.13,2013-04-28 12:22:00,
2013-04-28 08:28:00,72.5,66.0,30.10,ESE,123,0.0,0.0,80,0.00,,,0.00,Wunderground v.1.13,2013-04-28 12:28:00,
2013-04-28 08:34:00,72.9,66.0,30.10,SE,132,0.0,0.0,79,0.00,,,0.00,Wunderground v.1.13,2013-04-28 12:34:00,
2013-04-28 08:40:00,73.3,66.0,30.10,ESE,110,0.0,0.0,78,0.00,,,0.00,Wunderground v.1.13,2013-04-28 12:40:00,
2013-04-28 08:46:00,73.5,65.8,30.10,SE,141,0.0,3.0,77,0.00,,,0.00,Wunderground v.1.13,2013-04-28 12:46:00,
2013-04-28 08:52:00,73.7,66.0,30.09,ESE,105,1.0,2.0,77,0.00,,,0.00,Wunderground v.1.13,2013-04-28 12:52:00,
2013-04-28 08:58:00,74.0,66.0,30.10,East,88,0.0,1.0,76,0.00,,,0.00,Wunderground v.1.13,2013-04-28 12:58:00,
2013-04-28 09:04:00,74.3,65.9,30.10,ESE,123,1.0,3.0,75,0.00,,,0.00,Wunderground v.1.13,2013-04-28 13:04:00,
2013-04-28 09:10:00,74.7,66.2,30.10,SSE,154,1.0,1.0,75,0.00,,,0.00,Wunderground v.1.13,2013-04-28 13:10:00,
2013-04-28 09:16:00,74.9,65.7,30.10,SSE,148,1.0,10.0,73,0.00,,,0.00,Wunderground v.1.13,2013-04-28 13:16:00,
2013-04-28 09:22:00,75.1,65.5,30.10,South,169,2.0,5.0,72,0.00,,,0.00,Wunderground v.1.13,2013-04-28 13:22:00,
2013-04-28 09:28:00,75.2,65.6,30.10,SSE,157,2.0,10.0,72,0.00,,,0.00,Wunderground v.1.13,2013-04-28 13:28:00,
2013-04-28 09:34:00,75.6,65.9,30.10,SSE,153,1.0,10.0,72,0.00,,,0.00,Wunderground v.1.13,2013-04-28 13:34:00,
2013-04-28 09:40:00,75.3,65.6,30.10,SE,129,4.0,12.0,72,0.00,,,0.00,Wunderground v.1.13,2013-04-28 13:40:00,
2013-04-28 09:46:00,75.6,66.3,30.10,South,173,3.0,10.0,73,0.00,,,0.00,Wunderground v.1.13,2013-04-28 13:46:00,
2013-04-28 09:52:00,75.7,66.0,30.10,SSE,161,2.0,10.0,72,0.00,,,0.00,Wunderground v.1.13,2013-04-28 13:52:00,
2013-04-28 09:58:00,75.8,65.7,30.11,SE,143,2.0,10.0,71,0.00,,,0.00,Wunderground v.1.13,2013-04-28 13:58:00,
2013-04-28 10:04:00,75.8,65.3,30.10,ESE,113,3.0,14.0,70,0.00,,,0.00,Wunderground v.1.13,2013-04-28 14:04:00,
2013-04-28 10:10:00,75.9,65.4,30.11,ESE,116,5.0,5.0,70,0.00,,,0.00,Wunderground v.1.13,2013-04-28 14:10:00,
2013-04-28 10:16:00,76.2,65.7,30.11,ESE,111,4.0,13.0,70,0.00,,,0.00,Wunderground v.1.13,2013-04-28 14:16:00,
2013-04-28 10:22:00,76.4,65.9,30.11,SSE,154,2.0,13.0,70,0.00,,,0.00,Wunderground v.1.13,2013-04-28 14:22:00,
2013-04-28 10:28:00,76.4,65.9,30.11,SE,132,3.0,13.0,70,0.00,,,0.00,Wunderground v.1.13,2013-04-28 14:28:00,
2013-04-28 10:34:00,76.9,65.1,30.11,SSE,167,3.0,13.0,67,0.00,,,0.00,Wunderground v.1.13,2013-04-28 14:34:00,
2013-04-28 10:40:00,76.8,65.0,30.12,South,173,4.0,13.0,67,0.00,,,0.00,Wunderground v.1.13,2013-04-28 14:40:00,
2013-04-28 10:46:00,77.3,65.5,30.12,East,95,3.0,13.0,67,0.00,,,0.00,Wunderground v.1.13,2013-04-28 14:46:00,
2013-04-28 10:52:00,77.6,65.3,30.11,SSE,159,3.0,13.0,66,0.00,,,0.00,Wunderground v.1.13,2013-04-28 14:52:00,
2013-04-28 10:58:00,77.6,65.3,30.11,SSE,167,3.0,13.0,66,0.00,,,0.00,Wunderground v.1.13,2013-04-28 14:58:00,
2013-04-28 11:04:00,78.2,66.3,30.11,SE,128,1.0,13.0,67,0.00,,,0.00,Wunderground v.1.13,2013-04-28 15:04:00,
2013-04-28 11:10:00,78.6,65.8,30.10,South,169,2.0,4.0,65,0.00,,,0.00,Wunderground v.1.13,2013-04-28 15:10:00,
2013-04-28 11:16:00,78.8,64.7,30.10,SE,140,3.0,11.0,62,0.00,,,0.00,Wunderground v.1.13,2013-04-28 15:16:00,
2013-04-28 11:22:00,78.9,65.2,30.10,ESE,121,3.0,11.0,63,0.00,,,0.00,Wunderground v.1.13,2013-04-28 15:22:00,
2013-04-28 11:28:00,79.0,65.3,30.10,SE,133,2.0,11.0,63,0.00,,,0.00,Wunderground v.1.13,2013-04-28 15:28:00,
2013-04-28 11:34:00,79.2,65.5,30.09,SE,132,2.0,11.0,63,0.00,,,0.00,Wunderground v.1.13,2013-04-28 15:34:00,
2013-04-28 11:40:00,79.6,65.9,30.09,NE,52,1.0,11.0,63,0.00,,,0.00,Wunderground v.1.13,2013-04-28 15:40:00,
2013-04-28 11:46:00,80.0,64.9,30.09,ESE,115,2.0,11.0,60,0.00,,,0.00,Wunderground v.1.13,2013-04-28 15:46:00,
2013-04-28 11:52:00,80.6,65.9,30.09,SSE,156,1.0,11.0,61,0.00,,,0.00,Wunderground v.1.13,2013-04-28 15:52:00,
2013-04-28 11:58:00,80.2,65.5,30.09,South,170,2.0,11.0,61,0.00,,,0.00,Wunderground v.1.13,2013-04-28 15:58:00,
2013-04-28 12:04:00,80.3,64.7,30.09,SE,140,3.0,11.0,59,0.00,,,0.00,Wunderground v.1.13,2013-04-28 16:04:00,
2013-04-28 12:10:00,80.5,64.4,30.08,ESE,118,3.0,4.0,58,0.00,,,0.00,Wunderground v.1.13,2013-04-28 16:10:00,
2013-04-28 12:16:00,80.7,64.1,30.09,SE,144,3.0,10.0,57,0.00,,,0.00,Wunderground v.1.13,2013-04-28 16:16:00,
2013-04-28 12:22:00,80.7,64.5,30.08,South,170,4.0,10.0,58,0.00,,,0.00,Wunderground v.1.13,2013-04-28 16:22:00,
2013-04-28 12:28:00,81.4,64.7,30.08,SSE,168,3.0,10.0,57,0.00,,,0.00,Wunderground v.1.13,2013-04-28 16:28:00,
2013-04-28 12:34:00,81.3,64.6,30.08,SE,130,4.0,11.0,57,0.00,,,0.00,Wunderground v.1.13,2013-04-28 16:34:00,
2013-04-28 12:40:00,81.2,65.0,30.07,SSE,167,4.0,10.0,58,0.00,,,0.00,Wunderground v.1.13,2013-04-28 16:40:00,
2013-04-28 12:46:00,81.6,63.9,30.07,East,86,2.0,10.0,55,0.00,,,0.00,Wunderground v.1.13,2013-04-28 16:46:00,
2013-04-28 12:52:00,81.6,63.9,30.07,East,95,3.0,10.0,55,0.00,,,0.00,Wunderground v.1.13,2013-04-28 16:52:00,
2013-04-28 12:58:00,81.9,64.1,30.06,SSE,164,3.0,12.0,55,0.00,,,0.00,Wunderground v.1.13,2013-04-28 16:58:00,
2013-04-28 13:04:00,81.7,63.4,30.06,SSE,150,5.0,13.0,54,0.00,,,0.00,Wunderground v.1.13,2013-04-28 17:04:00,
2013-04-28 13:10:00,82.1,64.3,30.05,South,171,5.0,13.0,55,0.00,,,0.00,Wunderground v.1.13,2013-04-28 17:10:00,
2013-04-28 13:16:00,82.3,64.5,30.05,ESE,117,3.0,14.0,55,0.00,,,0.00,Wunderground v.1.13,2013-04-28 17:16:00,
2013-04-28 13:22:00,82.6,63.7,30.05,ESE,117,2.0,14.0,53,0.00,,,0.00,Wunderground v.1.13,2013-04-28 17:22:00,
2013-04-28 13:28:00,83.0,63.6,30.05,ESE,123,2.0,14.0,52,0.00,,,0.00,Wunderground v.1.13,2013-04-28 17:28:00,
2013-04-28 13:34:00,82.8,63.9,30.05,SE,126,1.0,14.0,53,0.00,,,0.00,Wunderground v.1.13,2013-04-28 17:34:00,
2013-04-28 13:40:00,83.1,63.7,30.04,East,94,2.0,14.0,52,0.00,,,0.00,Wunderground v.1.13,2013-04-28 17:40:00,
2013-04-28 13:46:00,83.0,64.1,30.05,SSE,165,4.0,14.0,53,0.00,,,0.00,Wunderground v.1.13,2013-04-28 17:46:00,
2013-04-28 13:52:00,83.0,64.1,30.04,East,101,4.0,14.0,53,0.00,,,0.00,Wunderground v.1.13,2013-04-28 17:52:00,
2013-04-28 13:58:00,83.3,64.4,30.04,SSW,193,1.0,14.0,53,0.00,,,0.00,Wunderground v.1.13,2013-04-28 17:58:00,
2013-04-28 14:04:00,84.1,64.0,30.04,SE,141,1.0,14.0,51,0.00,,,0.00,Wunderground v.1.13,2013-04-28 18:04:00,
2013-04-28 14:10:00,83.9,63.8,30.04,ESE,122,1.0,1.0,51,0.00,,,0.00,Wunderground v.1.13,2013-04-28 18:10:00,
2013-04-28 14:16:00,83.3,64.4,30.04,ESE,110,1.0,3.0,53,0.00,,,0.00,Wunderground v.1.13,2013-04-28 18:16:00,
2013-04-28 14:22:00,84.1,64.0,30.03,South,171,2.0,15.0,51,0.00,,,0.00,Wunderground v.1.13,2013-04-28 18:22:00,
2013-04-28 14:28:00,84.3,64.8,30.03,East,84,1.0,15.0,52,0.00,,,0.00,Wunderground v.1.13,2013-04-28 18:28:00,
2013-04-28 14:34:00,84.7,64.0,30.03,ESE,103,0.0,15.0,50,0.00,,,0.00,Wunderground v.1.13,2013-04-28 18:34:00,
2013-04-28 14:40:00,84.7,64.6,30.02,ESE,119,1.0,15.0,51,0.00,,,0.00,Wunderground v.1.13,2013-04-28 18:40:00,
2013-04-28 14:46:00,84.2,64.1,30.02,ESE,105,1.0,15.0,51,0.00,,,0.00,Wunderground v.1.13,2013-04-28 18:46:00,
2013-04-28 14:52:00,84.2,64.1,30.02,SSE,165,1.0,15.0,51,0.00,,,0.00,Wunderground v.1.13,2013-04-28 18:52:00,
2013-04-28 14:58:00,84.5,63.8,30.02,SE,130,1.0,15.0,50,0.00,,,0.00,Wunderground v.1.13,2013-04-28 18:58:00,
2013-04-28 15:04:00,84.3,63.1,30.02,SE,142,2.0,15.0,49,0.00,,,0.00,Wunderground v.1.13,2013-04-28 19:04:00,
2013-04-28 15:10:00,84.8,64.1,30.01,SE,130,1.0,10.0,50,0.00,,,0.00,Wunderground v.1.13,2013-04-28 19:10:00,
2013-04-28 15:16:00,85.6,64.2,30.01,SSE,165,1.0,3.0,49,0.00,,,0.00,Wunderground v.1.13,2013-04-28 19:16:00,
2013-04-28 15:22:00,85.5,63.6,30.01,ESE,109,1.0,11.0,48,0.00,,,0.00,Wunderground v.1.13,2013-04-28 19:22:00,
2013-04-28 15:28:00,85.0,63.1,30.01,SSE,149,2.0,11.0,48,0.00,,,0.00,Wunderground v.1.13,2013-04-28 19:28:00,
2013-04-28 15:34:00,85.4,62.9,30.01,SE,141,1.0,11.0,47,0.00,,,0.00,Wunderground v.1.13,2013-04-28 19:34:00,
2013-04-28 15:40:00,85.3,63.4,30.00,SE,138,1.0,11.0,48,0.00,,,0.00,Wunderground v.1.13,2013-04-28 19:40:00,
2013-04-28 15:46:00,85.2,62.7,30.00,ENE,74,1.0,11.0,47,0.00,,,0.00,Wunderground v.1.13,2013-04-28 19:46:00,
2013-04-28 15:52:00,84.9,63.0,30.00,ENE,74,0.0,11.0,48,0.00,,,0.00,Wunderground v.1.13,2013-04-28 19:52:00,
2013-04-28 15:58:00,84.8,62.9,30.00,SSE,152,0.0,11.0,48,0.00,,,0.00,Wunderground v.1.13,2013-04-28 19:58:00,
2013-04-28 16:04:00,85.0,63.1,30.00,South,187,0.0,11.0,48,0.00,,,0.00,Wunderground v.1.13,2013-04-28 20:04:00,
2013-04-28 16:10:00,85.0,62.5,30.00,East,95,0.0,0.0,47,0.00,,,0.00,Wunderground v.1.13,2013-04-28 20:10:00,
2013-04-28 16:16:00,85.2,62.7,29.99,SE,130,1.0,10.0,47,0.00,,,0.00,Wunderground v.1.13,2013-04-28 20:16:00,
2013-04-28 16:22:00,85.1,63.2,29.99,ESE,103,1.0,10.0,48,0.00,,,0.00,Wunderground v.1.13,2013-04-28 20:22:00,
2013-04-28 16:28:00,85.1,63.2,29.99,East,98,0.0,10.0,48,0.00,,,0.00,Wunderground v.1.13,2013-04-28 20:28:00,
2013-04-28 16:34:00,85.0,63.1,29.99,ESE,115,0.0,10.0,48,0.00,,,0.00,Wunderground v.1.13,2013-04-28 20:34:00,
2013-04-28 16:40:00,85.2,63.3,29.99,ESE,118,0.0,10.0,48,0.00,,,0.00,Wunderground v.1.13,2013-04-28 20:40:00,
2013-04-28 16:46:00,85.4,63.5,29.98,ESE,109,0.0,10.0,48,0.00,,,0.00,Wunderground v.1.13,2013-04-28 20:46:00,
2013-04-28 16:52:00,85.4,63.5,29.98,SE,144,0.0,10.0,48,0.00,,,0.00,Wunderground v.1.13,2013-04-28 20:52:00,
2013-04-28 16:58:00,85.4,66.3,29.98,SE,136,0.0,10.0,53,0.00,,,0.00,Wunderground v.1.13,2013-04-28 20:58:00,
2013-04-28 17:04:00,84.5,67.1,29.98,NNW,339,3.0,12.0,56,0.00,,,0.00,Wunderground v.1.13,2013-04-28 21:04:00,
2013-04-28 17:10:00,84.1,68.7,29.98,NW,306,2.0,4.0,60,0.00,,,0.00,Wunderground v.1.13,2013-04-28 21:10:00,
2013-04-28 17:16:00,83.6,68.7,29.98,NW,311,1.0,6.0,61,0.00,,,0.00,Wunderground v.1.13,2013-04-28 21:16:00,
2013-04-28 17:22:00,83.5,68.6,29.98,West,259,1.0,6.0,61,0.00,,,0.00,Wunderground v.1.13,2013-04-28 21:22:00,
2013-04-28 17:28:00,83.0,68.2,29.98,WSW,251,1.0,6.0,61,0.00,,,0.00,Wunderground v.1.13,2013-04-28 21:28:00,
2013-04-28 17:34:00,82.8,69.4,29.99,West,273,2.0,6.0,64,0.00,,,0.00,Wunderground v.1.13,2013-04-28 21:34:00,
2013-04-28 17:40:00,81.1,69.1,29.98,West,263,4.0,10.0,67,0.00,,,0.00,Wunderground v.1.13,2013-04-28 21:40:00,
2013-04-28 17:46:00,80.9,68.9,29.98,West,261,2.0,7.0,67,0.00,,,0.00,Wunderground v.1.13,2013-04-28 21:46:00,
2013-04-28 17:52:00,80.6,69.1,29.98,WNW,290,1.0,6.0,68,0.00,,,0.00,Wunderground v.1.13,2013-04-28 21:52:00,
2013-04-28 17:58:00,80.2,68.7,29.98,West,267,1.0,6.0,68,0.00,,,0.00,Wunderground v.1.13,2013-04-28 21:58:00,
2013-04-28 18:04:00,80.4,68.4,29.98,NW,315,0.0,7.0,67,0.00,,,0.00,Wunderground v.1.13,2013-04-28 22:04:00,
2013-04-28 18:10:00,80.7,68.3,29.98,West,261,0.0,0.0,66,0.00,,,0.00,Wunderground v.1.13,2013-04-28 22:10:00,
2013-04-28 18:16:00,80.9,68.9,29.97,WNW,289,0.0,10.0,67,0.00,,,0.00,Wunderground v.1.13,2013-04-28 22:16:00,
2013-04-28 18:22:00,80.8,68.8,29.97,WSW,255,0.0,10.0,67,0.00,,,0.00,Wunderground v.1.13,2013-04-28 22:22:00,
2013-04-28 18:28:00,80.5,69.0,29.97,West,261,1.0,10.0,68,0.00,,,0.00,Wunderground v.1.13,2013-04-28 22:28:00,
2013-04-28 18:34:00,80.3,69.2,29.97,West,272,0.0,10.0,69,0.00,,,0.00,Wunderground v.1.13,2013-04-28 22:34:00,
2013-04-28 18:40:00,80.4,68.9,29.97,WNW,286,0.0,10.0,68,0.00,,,0.00,Wunderground v.1.13,2013-04-28 22:40:00,
2013-04-28 18:46:00,80.0,68.5,29.97,WNW,298,1.0,10.0,68,0.00,,,0.00,Wunderground v.1.13,2013-04-28 22:46:00,
2013-04-28 18:52:00,79.7,68.6,29.97,WNW,295,1.0,10.0,69,0.00,,,0.00,Wunderground v.1.13,2013-04-28 22:52:00,
2013-04-28 18:58:00,79.5,68.9,29.97,West,278,0.0,10.0,70,0.00,,,0.00,Wunderground v.1.13,2013-04-28 22:58:00,
2013-04-28 19:04:00,79.7,69.0,29.98,West,273,0.0,10.0,70,0.00,,,0.00,Wunderground v.1.13,2013-04-28 23:04:00,
2013-04-28 19:10:00,79.5,68.9,29.97,West,275,1.0,4.0,70,0.00,,,0.00,Wunderground v.1.13,2013-04-28 23:10:00,
2013-04-28 19:16:00,79.3,68.7,29.97,West,276,1.0,9.0,70,0.00,,,0.00,Wunderground v.1.13,2013-04-28 23:16:00,
2013-04-28 19:22:00,78.9,68.7,29.97,NW,323,0.0,9.0,71,0.00,,,0.00,Wunderground v.1.13,2013-04-28 23:22:00,
2013-04-28 19:28:00,78.3,68.5,29.98,NW,319,0.0,9.0,72,0.00,,,0.00,Wunderground v.1.13,2013-04-28 23:28:00,
2013-04-28 19:34:00,77.7,68.4,29.98,NW,315,0.0,9.0,73,0.00,,,0.00,Wunderground v.1.13,2013-04-28 23:34:00,
2013-04-28 19:40:00,77.4,68.5,29.97,NW,310,0.0,9.0,74,0.00,,,0.00,Wunderground v.1.13,2013-04-28 23:40:00,
2013-04-28 19:46:00,77.1,68.2,29.98,NNW,327,0.0,9.0,74,0.00,,,0.00,Wunderground v.1.13,2013-04-28 23:46:00,
2013-04-28 19:52:00,76.8,68.3,29.97,NW,323,0.0,9.0,75,0.00,,,0.00,Wunderground v.1.13,2013-04-28 23:52:00,
2013-04-28 19:58:00,76.6,68.1,29.98,NW,322,0.0,9.0,75,0.00,,,0.00,Wunderground v.1.13,2013-04-28 23:58:00,
2013-04-28 20:04:00,76.5,68.0,29.98,NW,322,0.0,9.0,75,0.00,,,0.00,Wunderground v.1.13,2013-04-29 00:04:00,
2013-04-28 20:10:00,76.4,67.9,29.98,NW,322,0.0,0.0,75,0.00,,,0.00,Wunderground v.1.13,2013-04-29 00:10:00,
2013-04-28 20:16:00,76.3,67.8,29.98,NW,323,0.0,1.0,75,0.00,,,0.00,Wunderground v.1.13,2013-04-29 00:16:00,
2013-04-28 20:22:00,76.3,68.2,29.98,NW,322,0.0,1.0,76,0.00,,,0.00,Wunderground v.1.13,2013-04-29 00:22:00,
2013-04-28 20:28:00,76.2,68.1,29.98,NW,323,0.0,1.0,76,0.00,,,0.00,Wunderground v.1.13,2013-04-29 00:28:00,
2013-04-28 20:34:00,76.2,68.1,29.98,NW,322,0.0,1.0,76,0.00,,,0.00,Wunderground v.1.13,2013-04-29 00:34:00,
2013-04-28 20:40:00,76.1,68.0,29.98,NW,323,0.0,1.0,76,0.00,,,0.00,Wunderground v.1.13,2013-04-29 00:40:00,
2013-04-28 20:46:00,76.0,67.9,29.98,NW,322,0.0,1.0,76,0.00,,,0.00,Wunderground v.1.13,2013-04-29 00:46:00,
2013-04-28 20:52:00,76.0,67.9,29.98,NW,323,0.0,1.0,76,0.00,,,0.00,Wunderground v.1.13,2013-04-29 00:52:00,
2013-04-28 20:58:00,76.0,67.9,29.98,NW,322,0.0,1.0,76,0.00,,,0.00,Wunderground v.1.13,2013-04-29 00:58:00,
2013-04-28 21:04:00,75.9,67.8,29.98,NW,322,0.0,1.0,76,0.00,,,0.00,Wunderground v.1.13,2013-04-29 01:04:00,
2013-04-28 21:10:00,75.9,67.8,29.98,NW,323,0.0,0.0,76,0.00,,,0.00,Wunderground v.1.13,2013-04-29 01:10:00,
2013-04-28 21:16:00,75.9,67.4,29.98,NW,323,0.0,0.0,75,0.00,,,0.00,Wunderground v.1.13,2013-04-29 01:16:00,
2013-04-28 21:22:00,75.9,67.4,29.98,NW,322,0.0,0.0,75,0.00,,,0.00,Wunderground v.1.13,2013-04-29 01:22:00,
2013-04-28 21:28:00,75.8,67.3,29.98,NW,323,0.0,0.0,75,0.00,,,0.00,Wunderground v.1.13,2013-04-29 01:28:00,
2013-04-28 21:34:00,75.8,67.3,29.98,NW,322,0.0,0.0,75,0.00,,,0.00,Wunderground v.1.13,2013-04-29 01:34:00,
2013-04-28 21:40:00,75.8,67.7,29.98,NW,323,0.0,0.0,76,0.00,,,0.00,Wunderground v.1.13,2013-04-29 01:40:00,
2013-04-28 21:46:00,75.8,67.7,29.99,NW,322,0.0,0.0,76,0.00,,,0.00,Wunderground v.1.13,2013-04-29 01:46:00,
2013-04-28 21:52:00,75.8,67.7,29.99,NW,323,0.0,0.0,76,0.00,,,0.00,Wunderground v.1.13,2013-04-29 01:52:00,
2013-04-28 21:58:00,75.8,67.7,29.99,NW,322,0.0,0.0,76,0.00,,,0.00,Wunderground v.1.13,2013-04-29 01:58:00,
2013-04-28 22:04:00,75.8,67.7,30.00,NW,323,0.0,0.0,76,0.00,,,0.00,Wunderground v.1.13,2013-04-29 02:04:00,
2013-04-28 22:10:00,75.8,67.7,30.00,NW,323,0.0,0.0,76,0.00,,,0.00,Wunderground v.1.13,2013-04-29 02:10:00,
2013-04-28 22:16:00,75.8,67.7,30.01,NW,323,0.0,0.0,76,0.00,,,0.00,Wunderground v.1.13,2013-04-29 02:16:00,
2013-04-28 22:22:00,76.0,67.9,30.01,NW,323,0.0,0.0,76,0.00,,,0.00,Wunderground v.1.13,2013-04-29 02:22:00,
2013-04-28 22:28:00,76.2,68.5,30.01,NNE,23,0.0,0.0,77,0.00,,,0.00,Wunderground v.1.13,2013-04-29 02:28:00,
2013-04-28 22:34:00,76.3,68.9,30.01,NE,50,0.0,0.0,78,0.00,,,0.00,Wunderground v.1.13,2013-04-29 02:34:00,
2013-04-28 22:40:00,76.3,69.3,30.01,NE,49,0.0,0.0,79,0.00,,,0.00,Wunderground v.1.13,2013-04-29 02:40:00,
2013-04-28 22:46:00,76.2,69.2,30.01,NE,49,0.0,0.0,79,0.00,,,0.00,Wunderground v.1.13,2013-04-29 02:46:00,
2013-04-28 22:52:00,76.0,69.0,30.01,NE,45,0.0,0.0,79,0.00,,,0.00,Wunderground v.1.13,2013-04-29 02:52:00,
2013-04-28 22:58:00,76.0,69.0,30.02,ENE,57,0.0,0.0,79,0.00,,,0.00,Wunderground v.1.13,2013-04-29 02:58:00,
2013-04-28 23:04:00,75.8,68.4,30.02,ENE,57,0.0,0.0,78,0.00,,,0.00,Wunderground v.1.13,2013-04-29 03:04:00,
2013-04-28 23:10:00,75.8,68.1,30.02,ENE,57,0.0,0.0,77,0.00,,,0.00,Wunderground v.1.13,2013-04-29 03:10:00,
2013-04-28 23:16:00,75.8,68.1,30.02,ENE,57,0.0,0.0,77,0.00,,,0.00,Wunderground v.1.13,2013-04-29 03:16:00,
2013-04-28 23:22:00,75.8,68.1,30.02,ENE,57,0.0,0.0,77,0.00,,,0.00,Wunderground v.1.13,2013-04-29 03:22:00,
2013-04-28 23:28:00,75.7,68.4,30.02,ENE,57,0.0,0.0,78,0.00,,,0.00,Wunderground v.1.13,2013-04-29 03:28:00,
2013-04-28 23:34:00,75.7,68.7,30.02,ENE,57,0.0,0.0,79,0.00,,,0.00,Wunderground v.1.13,2013-04-29 03:34:00,
2013-04-28 23:40:00,75.5,68.5,30.02,ENE,57,0.0,0.0,79,0.00,,,0.00,Wunderground v.1.13,2013-04-29 03:40:00,
2013-04-28 23:46:00,75.4,68.4,30.02,ENE,57,0.0,0.0,79,0.00,,,0.00,Wunderground v.1.13,2013-04-29 03:46:00,
2013-04-28 23:52:00,75.4,68.8,30.02,ENE,57,0.0,0.0,80,0.00,,,0.00,Wunderground v.1.13,2013-04-29 03:52:00,
2013-04-28 23:58:00,75.3,69.1,30.02,ENE,57,0.0,0.0,81,0.00,,,0.01,Wunderground v.1.13,2013-04-29 03:58:00,